STARLINK-35904, 66627

Orbit data source: Space-Track

STARLINK-35904, 66627 is a payload satellite owned by SpaceX/Seattle (US) in LEO that was launched on Sun, 23 Nov 2025 UTC via an FALCON 9 launch vehicle from the Air Force Western Test Range (AFWTR). Payload-class satellites include a variety of spacecraft equipped with specific instruments for various scientific and technological missions. These include communications satellites like Starlink; space stations such as the ISS; scientific satellites like the Hubble; Earth observation satellites from companies like Planet Labs, Umbra, and HawkEye 360; GPS; miniature CubeSats for education and research; and military/defense satellites.

Loading next visibility...
Identifier
66627, 2025-271L
Orbit
LEO
Country
Flag of USUS
Related business
Manufacturer
SpaceX/Seattle
Mission
Operational Commercial Communications
Bus & Motor
STARLINK V2MO, Unknown motor
Mass
575 kg wet, ~530 kg dry
Launch date (UTC)
2025-11-23 (7 months ago)
Launch vehicle
FALCON 9
Launch site
Air Force Western Test Range (AFWTR)
Object type
Payload
Rocket body
Debris
Shape & HBR
Box + 2 Pan, 17.7 m
Radar Cross Section
36.964 m², Large (>1 m²)

Expand to show TLE details & history
Last TLE update: 1 day ago

TLE from 1 day ago
0 STARLINK-35904
1 66627U 25271L   26170.83006350  .00026409  00000-0  90041-3 0  9993
2 66627  53.1580  25.5854 0001025  91.3977 268.7141 15.30206766 33162
Epoch: 2026-06-19T19:55Z
TLE epoch observation values (Epoch: 2026-06-19T19:55:17.486Z)
Latitude
-0.00003°
Longitude
178.7091°
Altitude
476.11 km
Speed
7.629 km/s
True Right ascension
01h 42m 20s
True Declination
0° 00' 00"
Sunlit
Object was in daylight at epoch
Visualization orbit readout
Latitude
Unknown
Longitude
Unknown
Altitude
Unknown
Speed
Unknown
Apparent Right ascension
Unknown
Apparent Declination
Unknown
Sunlit
N/A
Visualization observer readout
Local Sidereal Time
07:21:57
Azimuth
Unknown
Elevation
Unknown
Doppler factor
Unknown
Orbital elements
Apogee altitude
476.154 km
Perigee altitude
474.749 km
Semi-major axis
6,853.589 km
Eccentricity
0.0001
Inclination
53.158°
RAAN
25.5854°
Arg. of periapsis
91.3977°
True anomaly
268.70236°
Mean anomaly
268.7141°
Eccentric anomaly
268.70823°
Mean motion
3.82531 °/min
Orbital period
94.11 mins
BSTAR
0.00090041
Loading maneuver chart data...
Computing Atmospheric mass density...
Loading historical data...
Loading historical data...
Loading historical data...
Loading historical data...
Loading historical data...
Loading historical data...
Loading historical data...

Documentation

Showing up to 5 results
|